Location: L�gaud
(45.7115°N, 1.7775°E)
Time: 20:46:25
(UTC+00:00)

Cosmos 2322 Rocket - Pass Details

Date: 03 March 2021
Orbit: 832 x 852 km, 71.0° (Epoch: 13 April)

Event Time Altitude Azimuth Distance (km) Brightness Sun altitude
Rises 19:06:07 0° 217° (SW) 3,364 5.8 -15.4°
Reaches altitude 10° 19:08:35 10° 221° (SW) 2,434 5.1 -15.8°
Maximum altitude 19:14:05 58° 300° (WNW) 971 2.8 -16.7°
Drops below altitude 10° 19:19:38 10° 20° (NNE) 2,456 4.5 -17.7°
Sets 19:22:08 0° 24° (NNE) 3,396 5.2 -18.1°
